Back to catalog

STARLINK-31520

AliveCommunicationsVLEO
NORAD 59210·PAYLOAD·🇺🇸 United States

Launched Mar 11, 2024 from Vandenberg Space Force Base

Loading…

Next Passes (next 24 hours)

TLE

FreshSource: CelesTrak SupGP

Epoch: Sep 14, 2026, 21:27 UTC

1 59210C 24046K   26257.89423611 -.00009339  00000+0 -27605-3 0  2574
2 59210  53.1586 355.6141 0001153  83.2838 152.2243 15.34379610    13

Track STARLINK-31520 in real time with AllMySat

Download on the App Store